This demonstration page uses our WeatherBlox Daily Observations layout. Learn more.

Hourly Observations for February 8, 2015

Temp ( °F °C ) Dew Point ( °F °C ) Humidity (%) Winds ( mph kmh ) Pressure ( in mb ) Visibility ( mi km ) Precip ( " mm )
12:15 am 00:15 Clear 53 11.5 28 -2.5 38 38 W 20 31 29.71 1006 10 16.0934 0 0
12:35 am 00:35 Clear 54 12.2 28 -2.1 37 37 W 21 33 29.71 1006 10 16.0934 0 0
12:55 am 00:55 Clear 55 13 27 -2.6 34 34 WNW 18 30 29.71 1006 10 16.0934 0 0
1:15 am 01:15 Clear 55 12.6 27 -2.7 35 35 WNW 18 30 29.74 1007 10 16.0934 0 0
1:35 am 01:35 Clear 55 12.7 27 -3 34 34 W 17 28 29.74 1007 10 16.0934 0 0
1:55 am 01:55 Clear 54 12.2 27 -3 35 35 W 16 26 29.74 1007 10 16.0934 0 0
2:15 am 02:15 Clear 52 10.9 27 -2.7 39 39 W 15 24 29.77 1008 10 16.0934 0 0
2:35 am 02:35 Clear 51 10.5 28 -2.5 40 40 W 14 22 29.77 1008 10 16.0934 0 0
2:55 am 02:55 Clear 49 9.6 28 -2.3 44 44 W 15 24 29.8 1009 10 16.0934 0 0
3:15 am 03:15 Clear 50 9.9 28 -2.1 43 43 W 16 26 29.8 1009 10 16.0934 0 0
3:35 am 03:35 Clear 48 8.9 29 -1.8 47 47 W 15 24 29.8 1009 10 16.0934 0 0
3:55 am 03:55 Clear 47 8.5 29 -1.6 49 49 WNW 13 20 29.8 1009 10 16.0934 0 0
4:15 am 04:15 Clear 48 8.9 30 -1.3 49 49 WNW 14 22 29.8 1009 10 16.0934 0 0
4:35 am 04:35 Clear 46 7.7 30 -1 54 54 WNW 12 19 29.8 1009 10 16.0934 0 0
4:55 am 04:55 Clear 45 7.4 31 -0.8 56 56 WNW 10 17 29.83 1010 10 16.0934 0 0
5:15 am 05:15 Clear 43 6 31 -0.8 62 62 W 13 20 29.85 1011 10 16.0934 0 0
5:35 am 05:35 Clear 42 5.7 31 -0.6 64 64 W 12 19 29.85 1011 10 16.0934 0 0
5:55 am 05:55 Clear 43 6 31 -0.5 63 63 W 10 17 29.88 1012 10 16.0934 0 0
6:15 am 06:15 Clear 42 5.5 31 -0.5 66 66 W 9 15 29.88 1012 10 16.0934 0 0
6:35 am 06:35 Clear 41 5.1 31 -0.6 67 67 W 12 19 29.88 1012 10 16.0934 0 0
6:55 am 06:55 Clear 41 4.9 31 -0.7 67 67 W 9 15 29.91 1013 10 16.0934 0 0
7:15 am 07:15 Clear 39 4.1 29 -1.4 68 68 WNW 8 13 29.94 1014 10 16.0934 0 0
7:35 am 07:35 Clear 39 4 30 -1.3 69 69 WNW 10 17 29.94 1014 10 16.0934 0 0
7:55 am 07:55 Sunny 39 4 30 -1.3 69 69 WNW 8 13 29.94 1014 10 16.0934 0 0
8:15 am 08:15 Sunny 41 4.9 30 -1 66 66 WNW 8 13 29.91 1013 10 16.0934 0 0
8:35 am 08:35 Sunny 41 5 31 -0.5 68 68 WNW 7 11 29.97 1015 10 16.0934 0 0
8:55 am 08:55 Sunny 43 6 31 -0.3 64 64 WNW 7 11 29.94 1014 10 16.0934 0 0
9:15 am 09:15 Sunny 46 7.8 32 0.1 59 59 WNW 5 7 29.94 1014 10 16.0934 0 0
9:35 am 09:35 Sunny 50 9.8 33 0.7 53 53 WNW 7 11 29.91 1013 10 16.0934 0 0
9:55 am 09:55 Sunny 53 11.5 32 0.2 46 46 WNW 13 20 29.91 1013 10 16.0934 0 0
10:15 am 10:15 Sunny 54 12 32 0 44 44 WNW 13 20 29.91 1013 10 16.0934 0 0
10:35 am 10:35 Sunny 55 12.7 32 0 42 42 WNW 10 17 29.91 1013 10 16.0934 0 0
10:55 am 10:55 Sunny 57 14 33 0.4 40 40 WNW 13 20 29.91 1013 10 16.0934 0 0
11:15 am 11:15 Sunny 59 15.1 32 0 36 36 WNW 12 19 29.91 1013 10 16.0934 0 0
11:35 am 11:35 Sunny 61 16.1 32 0.2 34 34 WNW 12 19 29.88 1012 10 16.0934 0 0
11:55 am 11:55 Sunny 62 16.6 32 0.2 33 33 NW 16 26 29.88 1012 10 16.0934 0 0
12:15 pm 12:15 Sunny 62 16.9 32 0 32 32 NW 15 24 29.88 1012 10 16.0934 0 0
12:35 pm 12:35 Sunny 61 16.3 31 -0.3 33 33 NNW 12 19 29.88 1012 10 16.0934 0 0
12:55 pm 12:55 Sunny 61 16.2 32 -0.2 33 33 NW 14 22 29.88 1012 10 16.0934 0 0
1:15 pm 13:15 Sunny 61 16 32 0 34 34 NW 13 20 29.88 1012 10 16.0934 0 0
1:35 pm 13:35 Sunny 62 16.6 32 0 33 33 NNW 12 19 29.88 1012 10 16.0934 0 0
1:55 pm 13:55 Sunny 63 17.4 32 0 31 31 NNW 12 19 29.88 1012 10 16.0934 0 0
2:15 pm 14:15 Sunny 64 17.6 32 0.2 31 31 NNW 10 17 29.88 1012 10 16.0934 0 0
2:35 pm 14:35 Sunny 65 18.3 32 0 29 29 NNW 13 20 29.88 1012 10 16.0934 0 0
2:55 pm 14:55 Sunny 65 18.1 31 -0.4 29 29 NNW 13 20 29.85 1011 10 16.0934 0 0
3:15 pm 15:15 Sunny 65 18.5 31 -0.4 28 28 NW 15 24 29.83 1010 10 16.0934 0 0
3:35 pm 15:35 Sunny 65 18.4 32 -0.1 29 29 NW 14 22 29.88 1012 10 16.0934 0 0
3:55 pm 15:55 Sunny 65 18.5 32 -0.1 29 29 NW 15 24 29.85 1011 10 16.0934 0 0
4:15 pm 16:15 Sunny 65 18.5 30 -1 27 27 NNW 14 22 29.85 1011 10 16.0934 0 0
4:35 pm 16:35 Sunny 65 18.3 30 -0.9 27 27 NNW 13 20 29.88 1012 10 16.0934 0 0
4:55 pm 16:55 Sunny 64 17.9 30 -1.1 28 28 NNW 15 24 29.91 1013 10 16.0934 0 0
5:15 pm 17:15 Sunny 63 17 31 -0.5 31 31 NNW 12 19 29.91 1013 10 16.0934 0 0
5:35 pm 17:35 Sunny 61 16 31 -0.5 33 33 NNW 12 19 29.91 1013 10 16.0934 0 0
5:55 pm 17:55 Sunny 58 14.7 31 -0.5 36 36 NNW 10 17 29.97 1015 10 16.0934 0 0
6:15 pm 18:15 Clear 56 13.6 31 -0.7 38 38 N 10 17 29.97 1015 10 16.0934 0 0
6:35 pm 18:35 Clear 55 12.7 31 -0.7 40 40 NNW 8 13 29.97 1015 10 16.0934 0 0
6:55 pm 18:55 Clear 50 10 31 -0.7 48 48 NW 7 11 30.03 1017 10 16.0934 0 0
7:15 pm 19:15 Clear 50 9.8 31 -0.8 48 48 NW 7 11 30.03 1017 10 16.0934 0 0
7:35 pm 19:35 Clear 48 8.8 30 -0.9 51 51 NW 8 13 30.06 1018 10 16.0934 0 0
7:55 pm 19:55 Clear 44 6.7 30 -1 58 58 NW 8 13 30.06 1018 10 16.0934 0 0
8:15 pm 20:15 Clear 42 5.6 30 -1.1 62 62 WNW 8 13 30.12 1020 10 16.0934 0 0
8:35 pm 20:35 Clear 41 5.2 30 -1.3 63 63 NW 6 9 30.12 1020 10 16.0934 0 0
8:55 pm 20:55 Clear 41 5.2 30 -1.2 64 64 NNW 6 9 30.12 1020 10 16.0934 0 0
9:15 pm 21:15 Clear 40 4.6 29 -1.5 65 65 NNW 3 6 30.15 1021 10 16.0934 0 0
9:35 pm 21:35 Clear 39 3.7 29 -1.6 69 69 NW 3 6 30.15 1021 10 16.0934 0 0
9:55 pm 21:55 Clear 39 3.7 30 -1.1 71 71 Calm 30.15 1021 10 16.0934 0 0
10:15 pm 22:15 Clear 38 3.3 30 -0.9 74 74 Calm 30.21 1023 10 16.0934 0 0
10:35 pm 22:35 Clear 33 0.5 27 -2.9 78 78 Calm 30.21 1023 10 16.0934 0 0
10:55 pm 22:55 Clear 36 2.4 30 -0.9 79 79 Calm 30.21 1023 10 16.0934 0 0
11:15 pm 23:15 Clear 33 0.7 28 -2 82 82 ENE 3 6 30.21 1023 10 16.0934 0 0
11:35 pm 23:35 Clear 33 0.4 28 -2.1 84 84 Calm 30.24 1024 10 16.0934 0 0
11:55 pm 23:55 Clear 32 0.1 28 -2.1 85 85 Calm 30.24 1024 10 16.0934 0 0

Powered by AerisWeather